Fort Stockton, TX

9:27 PM CDT on April 29, 2017 (GMT -0500)
Fort Stockton-Pecos County

Weather History for KFST - December, 2012

Change the Weather History Date:

Saturday, December 22, 2012

  Actual Average Record
Temperature  
Mean Temperature 50 °F -  
Max Temperature 66 °F 57 °F 77 °F (1996)
Min Temperature 34 °F 32 °F 18 °F (1998)
Degree Days  
Heating Degree Days 15    
Moisture  
Dew Point 7 °F    
Average Humidity 18    
Maximum Humidity 26    
Minimum Humidity 10    
Precipitation  
Precipitation 0.00 in - - ()
Sea Level Pressure  
Sea Level Pressure 30.06 in    
Wind  
Wind Speed 7 mph (SSE)    
Max Wind Speed 15 mph    
Max Gust Speed -    
Visibility 10 miles    
Events      
Averages and records for this station are not official NWS values.
T = Trace of Precipitation, MM = Missing Value Source: NWS Daily Summary

Daily Weather History Graph

Daily Weather History Graph

Search for Another Location

Airport or City:

Trip Planner

Search our weather history database for the weather conditions in past years. The results will help you decide how hot, cold, wet, or windy it might be!

Date:

Astronomy

Dec. 22, 2012 Rise Set
Actual Time 7:46 AM CST 5:54 PM CST
Civil Twilight 7:19 AM CST 6:21 PM CST
Nautical Twilight 6:49 AM CST 6:51 PM CST
Astronomical Twilight 6:19 AM CST 7:21 PM CST
Moon 2:03 PM CST (12/22) 2:45 AM CST (12/22)
Length of Visible Light 11h 01m
Length of Day
10h 08m
Waxing Gibbous, 74% of the Moon is Illuminated
Dec 22
Waxing Gibbous
Dec 28
Full
Jan 4
Last Quarter
Jan 11
New
Jan 18
First Quarter

Hourly Weather History & Observations

Time (CST) Temp. Windchill Dew Point Humidity Pressure Visibility Wind Dir Wind Speed Gust Speed Precip Events Conditions
12:53 AM 39.0 °F 31.4 °F 3.0 °F 22% 30.17 in 10.0 mi SSE 12.7 mph - N/A   Clear
1:53 AM 37.9 °F 29.2 °F 1.9 °F 22% 30.14 in 10.0 mi South 15.0 mph - N/A   Clear
3:53 AM 36.0 °F 32.1 °F 1.0 °F 23% 30.14 in 10.0 mi SSE 4.6 mph - N/A   Clear
4:53 AM 34.0 °F - 1.9 °F 26% 30.13 in 10.0 mi Calm Calm - N/A   Clear
5:53 AM 37.0 °F 34.5 °F 1.9 °F 23% 30.12 in 10.0 mi SSE 3.5 mph - N/A   Clear
6:53 AM 39.9 °F - 3.0 °F 21% 30.12 in 10.0 mi Calm Calm - N/A   Clear
7:53 AM 39.0 °F 36.8 °F 3.9 °F 23% 30.12 in 10.0 mi SSE 3.5 mph - N/A   Clear
8:53 AM 41.0 °F - 3.9 °F 21% 30.12 in 10.0 mi Calm Calm - N/A   Clear
9:53 AM 48.9 °F - 5.0 °F 17% 30.14 in 10.0 mi Calm Calm - N/A   Clear
10:53 AM 55.9 °F - 6.1 °F 14% 30.12 in 10.0 mi East 3.5 mph - N/A   Clear
11:53 AM 60.1 °F - 6.1 °F 12% 30.10 in 10.0 mi Calm Calm - N/A   Overcast
12:53 PM 63.0 °F - 6.1 °F 11% 30.06 in 10.0 mi NE 3.5 mph - N/A   Scattered Clouds
1:53 PM 64.9 °F - 7.0 °F 10% 30.03 in 10.0 mi North 5.8 mph - N/A   Mostly Cloudy
2:53 PM 64.9 °F - 7.0 °F 10% 29.98 in 10.0 mi East 5.8 mph - N/A   Partly Cloudy
3:53 PM 66.9 °F - 7.0 °F 10% 29.96 in 10.0 mi East 5.8 mph - N/A   Clear
4:53 PM 66.0 °F - 9.0 °F 11% 29.98 in 10.0 mi Calm Calm - N/A   Clear
5:53 PM 60.1 °F - 9.0 °F 13% 29.99 in 10.0 mi North 8.1 mph - N/A   Clear
6:53 PM 54.0 °F - 9.0 °F 17% 30.02 in 10.0 mi NW 8.1 mph - N/A   Clear
7:53 PM 52.0 °F - 10.9 °F 19% 30.02 in 10.0 mi SSW 5.8 mph - N/A   Clear
8:53 PM 55.9 °F - 10.9 °F 17% 30.01 in 10.0 mi SSW 13.8 mph - N/A   Scattered Clouds
9:53 PM 57.0 °F - 12.0 °F 17% 30.00 in 10.0 mi SSW 10.4 mph - N/A   Mostly Cloudy
10:53 PM 57.9 °F - 16.0 °F 19% 30.00 in 10.0 mi SSW 11.5 mph - N/A   Mostly Cloudy
11:53 PM 55.9 °F - 21.0 °F 26% 29.99 in 10.0 mi SSW 6.9 mph - N/A   Clear